RH
72 74 71 92 75 82 91 98 94 48 44 64 66 61 56 52 42 32 34 76 54 35 38 37 35 41 35 30 32 29 45 41 38 40 40 36 34 31 30 30 29 27 29 28 26
68 71 64 68 73 84 92 97 68 40 59 62 63 59 53 47 34 28 47 41 37 39 41 34 32 31 24 27 29 36 45 42 44 41 41 39 36 33 30 30 27 24 26 28 27
64 76 81 86 94 92 97 80 42 52 57 61 58 55 46 30 23 30 30 33 33 37 33 27 24 18 27 28 33 41 49 43 43 39 34 35 29 29 30 27 23 21 16 13 13
88 76 81 86 96 100 96 45 45 49 61 58 51 41 33 29 37 33 25 29 31 31 30 29 24 26 36 34 28 40 32 36 36 33 28 26 25 24 24 18 15 17 19 18 18
94 93 87 84 100 97 54 42 58 63 54 48 41 36 32 28 43 30 23 24 30 30 28 25 22 28 35 28 26 30 30 28 27 25 25 28 28 29 24 18 21 20 21 22 23
85 83 98 88 98 68 49 63 59 55 54 52 47 31 27 44 32 27 18 21 24 24 23 21 23 24 26 29 31 29 25 24 21 24 26 33 31 32 24 23 22 23 23 35 35
96 91 98 89 58 64 69 62 58 48 43 38 30 27 26 43 35 27 15 15 22 24 21 22 19 18 21 27 26 28 27 30 29 28 28 38 30 46 22 25 23 24 29 38 40
100 99 88 66 74 64 57 50 46 37 34 29 26 22 38 43 39 30 18 12 15 17 19 20 18 18 26 32 40 44 41 34 32 33 38 36 38 31 22 26 27 32 40 44 44
84 79 78 66 58 55 51 46 42 37 32 26 20 18 39 42 37 34 27 21 15 14 14 21 24 35 39 54 52 46 35 40 34 49 42 42 55 40 30 34 42 45 46 47 48
73 73 67 61 52 48 42 36 33 31 25 22 23 22 39 48 49 45 38 33 31 31 29 30 29 66 71 58 26 25 46 52 53 48 64 71 70 56 52 51 52 50 47 47 47
58 57 60 49 43 36 31 28 25 29 39 59 55 53 50 50 47 44 38 36 31 31 57 48 74 76 64 55 44 58 67 73 69 61 75 73 78 66 55 57 57 49 45 44 44
49 45 43 40 32 33 29 28 43 46 53 52 53 56 55 49 43 45 42 44 47 72 58 64 69 55 56 59 63 68 74 71 68 64 74 83 77 64 54 50 50 46 45 44 47
47 45 44 41 36 31 33 39 45 46 42 46 52 56 56 55 62 57 48 53 61 69 67 60 57 54 59 68 68 69 71 72 83 80 74 85 63 45 44 53 52 50 48 47 46
35 36 36 33 32 31 37 43 45 43 70 43 49 53 56 52 62 64 58 56 60 68 67 63 56 60 69 72 66 67 61 74 86 91 91 75 69 57 53 60 56 42 41 39 41
29 29 27 28 30 30 31 32 35 50 51 29 48 50 55 54 58 62 63 52 67 69 52 54 63 65 65 65 63 65 66 81 83 94 88 73 88 62 60 46 43 41 37 36 40
28 28 27 27 28 38 35 47 52 64 35 57 54 57 50 54 60 59 60 60 69 64 68 70 63 63 59 64 64 68 72 73 86 87 83 70 81 73 63 59 41 45 44 42 40
30 29 30 33 35 37 52 56 67 58 42 42 59 58 57 55 54 60 64 70 75 55 76 69 72 65 65 65 67 74 74 74 65 81 70 79 91 73 52 51 53 50 44 46 43
29 29 35 44 51 53 55 51 48 55 59 43 56 55 55 53 53 54 61 67 65 72 92 82 47 69 66 62 71 83 73 78 35 80 79 82 96 65 57 49 44 47 48 47 35
28 32 34 40 45 54 50 78 61 60 51 59 56 53 55 52 51 49 56 65 60 58 48 79 52 59 67 64 59 80 88 73 92 86 93 88 70 46 51 60 50 49 46 30 28
28 34 28 38 45 48 67 76 68 60 54 52 44 49 52 50 50 48 51 50 58 58 53 66 65 53 64 60 69 66 72 73 83 47 46 58 69 64 53 56 46 45 36 29 31
28 39 29 31 44 32 80 72 65 55 55 53 52 52 50 50 49 53 47 46 56 62 59 66 71 49 71 78 81 86 87 85 74 80 77 78 57 63 58 54 50 46 35 35 37
30 40 32 31 45 75 73 61 54 55 53 58 56 54 52 51 51 52 53 45 50 56 56 64 79 90 59 63 61 70 74 79 76 49 89 84 70 46 54 52 56 57 51 46 41
28 37 35 32 69 72 63 59 57 56 57 60 58 54 51 53 43 50 46 45 52 54 61 64 64 71 34 48 63 77 80 75 69 73 84 83 48 32 51 51 42 44 31 26 28
34 60 36 41 54 60 58 55 55 58 58 57 53 52 54 55 53 50 48 45 54 53 53 55 67 47 44 22 56 73 69 80 74 91 83 71 48 26 24 29 30 28 29 30 29
34 60 55 55 54 54 48 54 54 53 58 58 55 57 59 51 51 61 55 48 55 58 66 67 81 83 76 72 67 62 59 69 86 74 72 45 57 38 35 35 32 32 34 32 26
41 47 51 57 57 48 50 46 53 46 56 56 63 49 64 55 45 36 46 46 47 73 71 77 77 81 91 76 79 82 72 68 63 59 72 65 61 38 35 35 37 32 33 33 28
47 50 56 62 59 51 45 39 42 43 44 46 53 53 61 60 45 42 42 40 41 68 81 82 86 81 76 70 71 57 52 60 72 73 60 66 47 37 41 41 36 33 29 25 20
Wind_Speed
16 21 15 19 17 27 26 24 18 19 24 24 23 22 19 17 13 12 14 11 5 7 8 7 8 9 6 7 6 3 4 2 2 4 2 4 3 1 4 5 4 4 4 5 6
20 18 17 13 16 21 14 24 23 24 26 24 23 21 19 16 13 12 10 8 7 7 7 7 9 8 5 4 5 6 4 2 1 1 0 3 4 8 5 3 5 9 9 11 13
17 19 18 12 18 16 27 23 27 27 25 23 22 20 20 16 11 12 10 9 8 8 7 8 8 6 6 6 6 3 4 4 1 2 2 3 5 4 4 5 3 3 11 15 19
24 20 18 16 13 29 27 28 28 26 24 21 19 17 13 5 4 9 9 8 7 7 5 6 4 4 5 4 5 5 3 1 2 1 2 4 7 8 9 9 11 18 17 14 11
22 21 17 17 28 33 30 30 29 25 20 15 13 10 7 14 11 10 10 7 7 5 5 6 8 5 5 3 3 4 1 2 1 4 6 7 8 9 20 20 14 9 6 9 12
18 22 27 21 29 31 32 32 27 20 14 12 10 7 8 13 11 12 10 7 7 6 8 6 9 12 10 5 5 2 2 3 2 4 3 5 5 4 4 2 4 5 5 19 22
33 36 31 35 39 36 30 24 19 14 13 13 15 13 21 12 11 10 9 10 9 8 10 12 9 4 5 4 4 2 3 3 5 4 3 9 7 7 12 10 10 10 17 27 21
42 42 40 41 38 30 24 20 17 15 15 12 8 5 11 12 12 7 10 11 10 10 11 12 11 11 6 7 5 5 4 4 3 5 2 4 9 4 3 9 14 21 32 21 15
46 45 40 32 27 24 21 19 17 14 11 10 10 10 6 10 9 11 9 10 10 10 11 8 5 7 4 4 4 7 1 2 7 3 3 1 10 3 3 11 31 33 23 16 12
39 35 32 27 22 20 19 19 16 14 13 12 10 10 7 6 9 9 8 7 7 9 6 5 6 4 5 5 2 2 3 3 4 4 3 5 20 19 25 20 26 24 15 9 9
31 28 25 21 21 20 21 17 8 10 32 15 11 13 10 10 10 7 7 7 5 7 5 7 7 3 1 2 3 4 1 3 4 3 7 4 14 20 21 13 15 12 9 8 8
22 21 19 18 16 5 1 9 13 13 16 17 17 17 12 7 5 9 6 4 6 4 4 6 4 2 1 1 2 1 1 4 5 4 3 6 19 11 5 4 6 8 10 10 10
16 16 14 12 15 20 23 22 15 9 7 9 13 10 8 10 7 11 7 4 6 5 5 5 3 2 1 1 2 2 2 1 4 6 2 8 7 4 3 5 8 12 12 13 13
16 13 11 10 8 10 9 7 4 1 5 9 8 7 8 3 6 10 6 3 5 3 2 4 1 1 1 1 2 3 3 1 5 4 3 4 4 5 4 8 6 12 14 17 16
12 14 13 12 4 6 3 2 1 0 5 5 4 4 6 5 2 8 9 5 3 2 3 2 4 2 1 1 2 4 1 2 1 1 3 1 3 7 3 5 5 7 8 9 12
6 10 11 7 6 5 1 1 0 6 2 5 4 6 3 6 3 3 3 6 4 3 3 1 1 2 2 1 2 2 2 4 3 1 2 2 3 6 4 6 3 4 8 10 12
7 8 9 8 6 4 3 1 5 6 3 3 2 4 2 4 4 4 4 5 2 4 4 5 2 1 2 1 1 6 6 3 5 4 4 1 3 10 6 7 6 10 16 12 13
4 5 7 7 6 5 3 5 8 1 3 2 1 1 3 3 2 3 2 2 1 4 3 3 6 1 2 1 3 3 4 4 4 2 5 2 6 6 5 8 12 15 17 13 12
2 2 6 7 7 5 1 6 6 5 2 4 0 3 3 1 0 3 1 3 3 2 3 3 3 1 2 1 3 0 3 2 3 2 3 3 8 10 6 10 15 16 8 8 8
1 1 7 7 6 3 4 4 1 2 1 0 1 1 0 3 3 4 1 1 1 1 2 3 3 1 2 2 4 1 5 2 3 2 5 5 6 6 5 6 4 5 8 8 9
1 1 7 9 6 4 4 3 3 3 1 2 2 1 1 1 1 2 1 1 3 2 2 3 3 3 1 4 7 2 1 2 3 4 3 3 7 7 7 6 7 10 11 11 13
2 2 7 7 4 4 3 4 3 3 2 2 2 1 3 1 2 2 3 4 6 6 3 2 3 4 7 1 1 1 5 5 4 3 2 2 8 5 8 8 8 16 18 21 24
3 4 6 6 3 2 0 2 1 2 2 3 3 3 2 2 1 3 2 1 8 5 5 4 1 4 5 4 2 4 5 4 4 2 6 5 7 1 4 6 9 15 24 32 35
2 3 5 7 6 5 3 0 1 1 1 2 2 2 1 1 2 2 2 1 6 4 3 7 3 6 6 3 2 4 4 6 6 3 4 11 13 18 16 14 21 28 32 33 29
4 3 3 2 5 3 2 2 2 2 2 2 1 4 5 2 1 3 3 4 1 2 3 3 4 3 7 12 9 13 14 10 13 14 8 3 10 19 12 12 25 30 34 28 28
3 2 2 1 1 1 2 4 4 1 5 3 3 3 5 6 8 6 5 4 6 2 5 1 3 1 5 9 7 12 18 18 19 19 19 25 30 27 41 30 23 30 31 29 26
7 5 1 1 1 2 2 3 4 3 4 5 6 3 4 11 19 19 15 12 6 7 6 5 3 3 6 4 9 8 7 12 7 5 15 15 19 13 14 11 19 30 31 29 29
Wind_Direction
153 164 154 166 170 195 197 164 172 152 150 141 136 130 129 128 135 131 79 7 23 119 126 130 145 147 126 77 60 67 63 116 131 142 327 356 11 300 299 266 266 255 258 235 243
153 160 155 166 184 194 193 158 151 152 147 141 138 136 132 129 127 106 74 77 84 115 121 139 142 144 81 58 30 62 82 138 219 123 337 350 353 322 330 290 280 265 263 266 272
136 139 141 157 174 157 150 153 147 148 142 140 141 144 139 137 119 38 74 88 98 121 126 118 118 111 72 48 25 45 127 170 113 89 20 328 301 289 294 298 238 291 301 291 292
123 126 142 157 176 139 148 147 141 140 139 142 144 144 145 128 90 33 65 93 107 129 137 110 101 73 68 61 30 88 70 90 138 4 336 306 301 291 239 252 284 298 300 308 314
130 135 134 143 112 127 138 131 131 137 138 133 140 134 127 82 56 49 57 82 103 118 117 96 74 84 89 81 61 71 42 67 346 309 299 292 270 265 275 285 286 285 301 320 316
125 119 115 117 124 122 127 128 129 129 127 128 134 132 114 77 62 53 59 73 108 109 88 79 89 93 91 65 63 50 29 339 339 341 323 328 278 337 255 315 264 260 282 318 308
100 120 110 120 117 120 121 119 121 117 114 115 106 107 89 75 59 58 69 83 93 95 98 94 84 95 94 91 72 36 45 8 22 10 348 339 294 231 275 242 268 268 299 311 300
105 115 117 118 117 116 117 115 113 102 109 109 108 102 77 72 67 78 79 83 90 96 101 98 97 84 64 108 37 39 48 11 337 359 354 52 275 282 282 231 283 295 304 302 293
107 108 112 112 113 116 115 113 103 105 106 103 100 99 74 73 74 70 79 86 88 93 100 99 88 76 64 65 28 14 296 334 323 15 315 145 278 267 269 278 292 296 301 293 282
109 112 116 118 117 112 108 105 99 112 106 93 67 80 62 50 57 56 64 75 92 101 91 59 52 69 34 50 229 332 356 319 265 323 330 277 268 281 277 275 278 287 287 273 279
105 110 119 119 116 115 111 108 93 72 64 62 64 81 81 76 58 50 58 67 69 54 44 27 64 81 140 62 120 116 136 270 266 295 330 252 278 287 297 267 259 260 254 263 281
98 104 107 114 112 82 87 98 103 119 72 64 68 70 60 56 60 42 41 51 44 57 2 28 80 212 262 63 82 85 323 296 280 271 304 302 298 290 276 236 238 257 249 259 278
80 85 85 84 85 92 98 101 110 107 87 38 41 40 32 46 45 17 34 53 71 51 26 115 160 154 99 64 33 266 218 303 241 316 232 317 290 317 273 276 266 260 263 264 278
67 62 77 80 70 60 74 93 107 89 81 334 1 22 9 34 48 30 34 63 44 122 81 88 158 117 125 216 141 331 192 327 310 27 284 24 279 296 316 304 271 282 269 272 273
63 51 40 45 45 46 53 39 19 33 67 304 338 359 24 68 83 16 35 53 81 105 105 212 163 179 241 231 127 240 312 263 226 146 13 297 67 268 359 293 275 293 291 296 275
22 11 13 33 36 44 51 3 38 43 265 341 331 356 44 28 39 11 58 65 90 88 27 134 208 188 241 303 216 351 69 36 50 331 26 266 111 281 207 209 251 260 277 287 280
335 343 1 10 12 8 340 51 42 93 287 317 2 18 55 0 18 30 33 22 68 59 353 342 238 270 213 342 35 47 51 336 351 8 222 280 34 248 256 233 222 266 288 283 274
343 0 15 23 29 12 350 51 67 209 206 220 240 122 88 349 3 11 76 50 40 80 95 80 331 189 143 184 181 47 126 141 236 303 282 25 236 251 235 260 246 273 277 281 287
3 22 24 12 360 353 146 53 184 206 158 156 134 88 360 6 347 40 65 185 208 157 113 58 285 266 187 143 105 11 37 184 91 319 317 242 282 289 269 262 260 256 264 281 302
343 274 7 5 356 8 85 137 157 207 186 79 86 41 101 318 25 22 325 200 161 147 108 182 328 305 334 124 39 144 165 45 21 11 303 290 281 242 283 237 240 259 253 276 297
318 222 3 359 1 57 99 198 192 172 130 103 151 115 250 317 343 308 273 290 178 153 101 133 122 283 36 198 180 141 178 94 126 154 186 299 272 215 232 229 232 255 266 282 296
1 31 1 360 31 45 100 159 145 154 114 99 108 140 194 195 263 252 240 226 183 159 153 179 151 267 224 104 117 214 198 159 130 222 223 162 272 237 237 251 263 279 288 291 294
21 353 7 12 95 26 236 104 150 127 206 167 190 196 173 216 273 204 250 302 178 158 168 180 335 336 356 7 21 227 198 161 107 80 206 154 260 272 278 284 286 287 297 303 309
38 22 21 46 68 116 123 144 163 201 168 181 165 117 92 292 221 287 269 247 196 200 194 161 174 197 205 216 138 225 205 196 168 174 203 229 274 270 290 303 302 301 304 308 314
49 65 46 343 12 45 48 151 146 229 216 219 321 206 176 225 265 237 247 308 200 211 138 133 244 196 267 269 259 259 250 213 210 219 216 282 235 272 277 289 295 299 303 304 309
55 71 65 69 333 99 20 197 204 256 162 229 205 182 194 208 202 210 185 198 220 117 155 55 269 17 264 268 263 263 247 235 233 237 249 262 276 275 281 293 301 305 310 309 299
32 21 22 21 70 82 237 191 213 184 215 228 204 166 215 242 254 263 263 258 230 165 184 165 192 15 273 325 300 284 235 194 199 213 222 239 246 289 291 288 299 311 319 318 319